• In Hungary
  • List of Countries
  • For 7 days
  • Water Temperature
  • Satellite Maps
  • Weather Map
  • News
  • Weather Widgets
  • user-avatar
    Login

    Hourly Weather Bortniki

    Today, 23 May, Wednesday

    Time Temperature Precipitation Wind Pressure Humidity
    00:00 +10°C° 0 mm 2 mps 740 mmHg 91%
    01:00 +10°C° 0 mm 3 mps 740 mmHg 91%
    02:00 +10°C° 0 mm 3 mps 740 mmHg 91%
    03:00 +10°C° 0 mm 3 mps 740 mmHg 91%
    04:00 +10°C° 0 mm 3 mps 740 mmHg 92%
    05:00 +10°C° 0 mm 3 mps 740 mmHg 92%
    06:00 +11°C° 0.1 mm 3 mps 740 mmHg 89%
    07:00 +13°C° 0.1 mm 3 mps 740 mmHg 86%
    08:00 +16°C° 0.1 mm 3 mps 740 mmHg 84%
    09:00 +17°C° 0.4 mm 3 mps 740 mmHg 78%
    10:00 +19°C° 0.4 mm 3 mps 740 mmHg 73%
    11:00 +20°C° 0.4 mm 3 mps 740 mmHg 67%
    12:00 +21°C° 0.3 mm 3 mps 740 mmHg 64%
    13:00 +21°C° 0.3 mm 3 mps 740 mmHg 61%
    14:00 +21°C° 0.3 mm 4 mps 740 mmHg 58%
    15:00 +21°C° 0.2 mm 4 mps 740 mmHg 59%
    16:00 +21°C° 0.2 mm 3 mps 740 mmHg 60%
    17:00 +20°C° 0.2 mm 3 mps 740 mmHg 61%
    18:00 +19°C° 0 mm 3 mps 740 mmHg 68%
    19:00 +17°C° 0 mm 2 mps 739 mmHg 74%
    20:00 +15°C° 0 mm 2 mps 739 mmHg 81%
    21:00 +14°C° 0 mm 2 mps 740 mmHg 84%
    22:00 +13°C° 0 mm 2 mps 740 mmHg 88%
    23:00 +12°C° 0 mm 2 mps 740 mmHg 92%

    Tomorrow, 24 May, Thursday

    Time Temperature Precipitation Wind Pressure Humidity
    00:00 +12°C° 0 mm 2 mps 740 mmHg 93%
    01:00 +10°C° 0 mm 2 mps 740 mmHg 94%
    02:00 +10°C° 0 mm 2 mps 740 mmHg 96%
    03:00 +10°C° 0 mm 2 mps 740 mmHg 96%
    04:00 +10°C° 0 mm 3 mps 740 mmHg 95%
    05:00 +10°C° 0 mm 3 mps 740 mmHg 95%
    06:00 +12°C° 0 mm 3 mps 741 mmHg 89%
    07:00 +13°C° 0 mm 4 mps 741 mmHg 83%
    08:00 +15°C° 0 mm 4 mps 741 mmHg 78%
    09:00 +16°C° 0 mm 5 mps 741 mmHg 73%
    10:00 +19°C° 0 mm 5 mps 741 mmHg 68%
    11:00 +20°C° 0 mm 5 mps 741 mmHg 63%
    12:00 +20°C° 0.4 mm 5 mps 741 mmHg 63%
    13:00 +20°C° 0.4 mm 5 mps 741 mmHg 64%
    14:00 +20°C° 0.4 mm 6 mps 741 mmHg 65%
    15:00 +20°C° 0.2 mm 5 mps 741 mmHg 65%
    16:00 +20°C° 0.2 mm 5 mps 740 mmHg 65%
    17:00 +20°C° 0.2 mm 5 mps 740 mmHg 66%
    18:00 +19°C° 0.1 mm 4 mps 740 mmHg 71%
    19:00 +17°C° 0.1 mm 4 mps 740 mmHg 76%
    20:00 +16°C° 0.1 mm 3 mps 740 mmHg 81%
    21:00 +14°C° 0.1 mm 3 mps 740 mmHg 84%
    22:00 +14°C° 0.1 mm 3 mps 740 mmHg 87%
    23:00 +13°C° 0.1 mm 3 mps 741 mmHg 90%

    Day after tomorrow, 25 May, Friday

    Time Temperature Precipitation Wind Pressure Humidity
    00:00 +13°C° 0.2 mm 3 mps 741 mmHg 92%
    01:00 +12°C° 0.2 mm 3 mps 741 mmHg 94%
    02:00 +12°C° 0.2 mm 4 mps 741 mmHg 96%
    03:00 +12°C° 0.1 mm 4 mps 741 mmHg 96%
    04:00 +12°C° 0.1 mm 4 mps 741 mmHg 96%
    05:00 +12°C° 0.1 mm 4 mps 741 mmHg 96%
    06:00 +14°C° 0 mm 4 mps 742 mmHg 92%
    07:00 +15°C° 0 mm 4 mps 742 mmHg 88%
    08:00 +16°C° 0 mm 5 mps 743 mmHg 83%
    09:00 +19°C° 0.4 mm 5 mps 743 mmHg 78%
    10:00 +20°C° 0.4 mm 5 mps 743 mmHg 72%
    11:00 +22°C° 0.4 mm 5 mps 744 mmHg 67%
    12:00 +22°C° 0.5 mm 5 mps 744 mmHg 65%
    13:00 +23°C° 0.5 mm 5 mps 744 mmHg 64%
    14:00 +23°C° 0.5 mm 5 mps 744 mmHg 62%
    15:00 +23°C° 0.2 mm 5 mps 744 mmHg 63%
    16:00 +23°C° 0.2 mm 5 mps 744 mmHg 64%
    17:00 +23°C° 0.2 mm 4 mps 744 mmHg 65%
    18:00 +21°C° 0 mm 4 mps 744 mmHg 70%
    19:00 +20°C° 0 mm 4 mps 744 mmHg 74%
    20:00 +18°C° 0 mm 4 mps 745 mmHg 79%
    21:00 +17°C° 0 mm 4 mps 745 mmHg 80%
    22:00 +15°C° 0 mm 4 mps 745 mmHg 80%
    23:00 +14°C° 0 mm 4 mps 746 mmHg 80%

    26 May, Saturday

    Time Temperature Precipitation Wind Pressure Humidity
    00:00 +13°C° 0 mm 4 mps 746 mmHg 81%
    01:00 +12°C° 0 mm 3 mps 746 mmHg 82%
    02:00 +11°C° 0 mm 3 mps 746 mmHg 83%
    03:00 +11°C° 0 mm 3 mps 747 mmHg 84%
    04:00 +10°C° 0 mm 3 mps 747 mmHg 84%
    05:00 +10°C° 0 mm 3 mps 747 mmHg 85%
    06:00 +12°C° 0 mm 4 mps 748 mmHg 79%
    07:00 +13°C° 0 mm 4 mps 748 mmHg 73%
    08:00 +15°C° 0 mm 4 mps 748 mmHg 67%
    09:00 +17°C° 0 mm 4 mps 748 mmHg 63%
    10:00 +17°C° 0 mm 5 mps 748 mmHg 58%
    11:00 +19°C° 0 mm 5 mps 748 mmHg 54%
    12:00 +20°C° 0 mm 5 mps 748 mmHg 53%
    13:00 +20°C° 0 mm 5 mps 748 mmHg 51%
    14:00 +21°C° 0 mm 5 mps 748 mmHg 49%
    15:00 +20°C° 0 mm 5 mps 748 mmHg 51%
    16:00 +20°C° 0 mm 4 mps 747 mmHg 53%
    17:00 +20°C° 0 mm 4 mps 747 mmHg 55%
    18:00 +18°C° 0 mm 4 mps 747 mmHg 61%
    19:00 +17°C° 0 mm 3 mps 747 mmHg 67%
    20:00 +14°C° 0 mm 3 mps 747 mmHg 73%
    21:00 +13°C° 0 mm 3 mps 747 mmHg 74%
    22:00 +12°C° 0 mm 3 mps 747 mmHg 75%
    23:00 +11°C° 0 mm 3 mps 748 mmHg 77%

    27 May, Sunday

    Time Temperature Precipitation Wind Pressure Humidity
    00:00 +11°C° 0 mm 3 mps 748 mmHg 79%
    01:00 +10°C° 0 mm 3 mps 748 mmHg 81%
    02:00 +10°C° 0 mm 3 mps 748 mmHg 83%
    03:00 +10°C° 0 mm 2 mps 748 mmHg 84%
    04:00 +10°C° 0 mm 2 mps 748 mmHg 85%
    05:00 +9°C° 0 mm 2 mps 748 mmHg 86%
    06:00 +12°C° 0 mm 2 mps 748 mmHg 81%
    07:00 +13°C° 0 mm 3 mps 748 mmHg 76%
    08:00 +16°C° 0 mm 3 mps 748 mmHg 71%
    09:00 +17°C° 0 mm 3 mps 748 mmHg 65%
    10:00 +18°C° 0 mm 3 mps 748 mmHg 60%
    11:00 +19°C° 0 mm 3 mps 748 mmHg 55%
    12:00 +20°C° 0 mm 3 mps 748 mmHg 53%
    13:00 +21°C° 0 mm 2 mps 747 mmHg 51%
    14:00 +21°C° 0 mm 2 mps 747 mmHg 49%
    15:00 +21°C° 0 mm 2 mps 747 mmHg 49%
    16:00 +21°C° 0 mm 2 mps 747 mmHg 50%
    17:00 +21°C° 0 mm 2 mps 746 mmHg 50%
    18:00 +21°C° 0 mm 1 mps 746 mmHg 56%
    19:00 +19°C° 0 mm 1 mps 746 mmHg 62%
    20:00 +16°C° 0 mm 1 mps 746 mmHg 67%
    21:00 +15°C° 0 mm 1 mps 746 mmHg 69%
    22:00 +14°C° 0 mm 1 mps 746 mmHg 71%
    23:00 +13°C° 0 mm 1 mps 746 mmHg 73%

    28 May, Monday

    Time Temperature Precipitation Wind Pressure Humidity
    00:00 +13°C° 0 mm 1 mps 746 mmHg 74%
    01:00 +12°C° 0 mm 1 mps 746 mmHg 75%
    02:00 +12°C° 0 mm 1 mps 747 mmHg 77%
    03:00 +12°C° 0 mm 1 mps 747 mmHg 77%
    04:00 +12°C° 0 mm 1 mps 747 mmHg 77%
    05:00 +12°C° 0 mm 1 mps 747 mmHg 78%
    06:00 +14°C° 0 mm 1 mps 747 mmHg 72%
    07:00 +16°C° 0 mm 1 mps 747 mmHg 67%
    08:00 +19°C° 0 mm 1 mps 747 mmHg 62%
    09:00 +19°C° 0 mm 2 mps 747 mmHg 58%
    10:00 +20°C° 0 mm 2 mps 747 mmHg 54%
    11:00 +21°C° 0 mm 2 mps 747 mmHg 50%
    12:00 +23°C° 0 mm 2 mps 747 mmHg 48%
    13:00 +24°C° 0 mm 2 mps 747 mmHg 47%
    14:00 +24°C° 0 mm 2 mps 747 mmHg 46%
    15:00 +24°C° 0 mm 2 mps 746 mmHg 47%
    16:00 +24°C° 0 mm 2 mps 746 mmHg 49%
    17:00 +24°C° 0 mm 2 mps 746 mmHg 50%
    18:00 +22°C° 0 mm 1 mps 745 mmHg 56%
    19:00 +20°C° 0 mm 1 mps 745 mmHg 62%
    20:00 +19°C° 0 mm 1 mps 745 mmHg 68%
    21:00 +18°C° 0 mm 1 mps 745 mmHg 70%
    22:00 +16°C° 0 mm 1 mps 745 mmHg 71%
    23:00 +15°C° 0 mm 1 mps 745 mmHg 73%
    Show more